Location: Newark
(36.1358°N, 115.1208°W)
Time: 02:14:51
(UTC+00:00)

Vanguard 1 Rocket - Pass Details

Date: 18 February 2020
Orbit: 650 x 4226 km, 34.3° (Epoch: 06 April)

Event Time Altitude Azimuth Distance (km) Brightness Sun altitude
Rises 09:58:43 0° 230° (SW) 4,927 - -52.9°
Reaches altitude 10° 10:02:57 10° 223° (SW) 3,394 - -52.2°
Maximum altitude 10:09:41 33° 162° (SSE) 1,482 - -51.0°
Drops below altitude 10° 10:14:09 10° 97° (E) 2,226 - -50.2°
Sets 10:16:21 0° 86° (E) 3,025 - -49.8°
